Location: Recife
(8.0585°S, 34.8848°W)
Time: 20:55:50
(UTC-03:00)

S-56A Canister/Altair - Pass Details

Date: 21 April 2026
Orbit: 633 x 2484 km, 38.9° (Epoch: 16 May)

Event Time Altitude Azimuth Distance (km) Brightness Sun altitude
Rises 09:33:51 0° 334° (NNW) 6,129 12.2 57.2°
Reaches altitude 10° 09:38:48 10° 344° (NNW) 5,122 12.0 58.2°
Maximum altitude 09:50:46 30° 38° (NE) 3,483 12.1 60.4°
Drops below altitude 10° 10:00:45 10° 93° (E) 4,292 11.8 62.2°
Sets 10:04:22 0° 104° (ESE) 5,027 11.9 62.8°
